Location: Unspecified
(52.4292°N, 19.3359°E)
Time: 15:59:49
(UTC+01:00)

A-11 Canister half - Pass Details

Date: 15 October 2025
Orbit: 1526 x 1682 km, 47.3° (Epoch: 13 November)

Event Time Altitude Azimuth Distance (km) Brightness Sun altitude
Exits shadow 05:18:09 21° 242° (WSW) 2,896 9.9 -17.5°
Maximum altitude 05:24:38 62° 169° (S) 1,690 9.2 -16.5°
Drops below altitude 10° 05:33:47 10° 92° (E) 3,721 12.4 -15.1°
Sets 05:36:53 0° 89° (E) 4,719 13.5 -14.6°
